Tracking 30995 objects as of 5-Jul-2025
HD Live streaming from Space Station
objects crossing your sky now

FLOCK 3S 3

Track FLOCK 3S 3 now!
10-day predictions
FLOCK 3S 3 is classified as:


NORAD ID: 43788
Int'l Code: 2018-099AG
Perigee: 449.7 km
Apogee: 459.3 km
Inclination: 97.5 °
Period: 93.5 minutes
Semi major axis: 6825 km
RCS: Unknown
Launch date: December 3, 2018
Source: United States (US)
Launch site: AIR FORCE WESTERN TEST RANGE (AFWTR)
Your satellite tracking list
CZ-2D DEB
Track 1 satellite(s)




NASA's NSSDC Master Catalog

Two Line Element Set (TLE):
1 43788U 18099AG  25185.93704599  .00041473  00000-0  10508-2 0  9999
2 43788  97.4734 253.8976 0007085  73.4035 286.7988 15.39581071361039
Source of the keplerian elements: AFSPC